[[{"header":{"parameterUnit":"m.s-1","parameterCategory":1,"la1":30.2991,"la2":30.254,"lo1":-89.0895,"lo2":-89.0444,"dy":0.0017,"dx":0.0017,"nx":28,"ny":28,"refTime":"2025-01-30T03:00:00:Z","depth":0,"parameterNumber":2,"parameterNumberName":"U-component_of_WINDS"},"data":[0,0,0,0,0,0,0,0,0,0,0,0,0,0,0,0,0,0,0,0,0,0,0,0,0,0,0,0,0,0,0,0,0,0,0,0,0,0,0,0,0,0,0,0,0,0,0,0,0,0,0,0,0,0,0,0,0,0,-2.7299,-2.73,0,-2.7393,-2.7394,-2.7395,-2.7426,-2.7426,-2.7426,-2.7425,-2.7524,-2.7527,-2.753,0,0,0,0,0,0,0,0,0,0,0,0,0,-2.7149,-2.7152,-2.7299,-2.73,-2.7301,-2.7393,-2.7394,-2.7395,-2.7426,-2.7426,-2.7426,-2.7425,-2.7523,-2.7526,-2.753,0,0,0,0,0,0,0,0,0,0,0,0,0,-2.7226,-2.7153,-2.7299,-2.7328,-2.7331,-2.7392,-2.7394,-2.7396,-2.7427,-2.7426,-2.7425,-2.7425,-2.7522,-2.7526,-2.753,-2.757,0,0,-2.7544,-2.7546,0,0,0,0,0,0,0,0,-2.7221,-2.7231,-2.7322,-2.7326,-2.733,-2.7397,-2.7377,-2.7454,-2.7427,-2.7391,-2.7425,-2.7425,-2.7482,-2.749,-2.7509,-2.7575,-2.7579,-2.7545,-2.7547,-2.7549,-2.755,0,0,0,0,0,0,0,-2.7216,-2.7227,-2.7336,-2.7324,-2.7328,-2.7337,-2.7347,-2.7392,-2.7439,-2.7394,-2.7396,-2.7407,-2.7484,-2.7505,-2.7512,-2.758,-2.7544,-2.7548,-2.7551,-2.7553,-2.7683,-2.7684,0,0,0,0,0,0,-2.7206,-2.7223,-2.7333,-2.7339,-2.7273,-2.734,-2.7352,-2.7376,-2.7438,-2.7447,-2.7407,-2.7408,-2.7497,-2.7506,-2.7515,-2.7565,-2.7549,-2.7553,-2.7556,-2.7682,-2.7683,-2.7684,0,0,0,0,0,0,-2.7202,-2.7215,-2.7329,-2.7282,-2.7297,-2.7343,-2.7371,-2.7378,-2.7399,-2.7448,-2.7457,-2.7419,-2.7497,-2.7509,-2.7556,-2.7569,-2.7555,-2.7559,-2.7681,-2.7683,-2.7684,-2.7665,0,0,0,0,0,0,-2.7198,-2.7214,-2.7229,-2.7282,-2.7299,-2.7368,-2.7372,-2.7381,-2.7406,-2.7408,-2.7462,-2.747,-2.7498,-2.7549,-2.756,-2.7575,-2.7563,-2.768,-2.7682,-2.7683,-2.7665,-2.7666,-2.7666,0,0,0,0,0,-2.7192,-2.722,-2.7229,-2.7242,-2.7319,-2.7368,-2.7379,-2.7409,-2.7407,-2.7423,-2.7455,-2.7469,-2.7566,-2.7554,-2.7567,-2.7583,-2.768,-2.7682,-2.7683,-2.7665,-2.7665,-2.7666,0,0,0,0,0,0,-2.7169,-2.7228,-2.7238,-2.7284,-2.7321,-2.7374,-2.7394,-2.7409,-2.7447,-2.7447,-2.7484,-2.7496,-2.754,-2.7566,-2.7552,-2.7624,-2.7624,-2.7628,-2.7605,-2.7606,-2.7607,-2.7599,-2.7567,0,0,0,0,0,-2.7168,-2.7203,-2.7253,-2.7289,-2.7307,-2.7347,-2.737,-2.739,-2.743,-2.7446,-2.7481,-2.752,-2.7559,-2.7585,-2.7624,-2.7669,-2.7681,-2.7687,-2.7688,-2.7688,-2.7691,-2.7717,-2.772,-2.769,-2.769,-2.769,0,0,-2.7169,-2.7206,-2.7225,-2.7285,-2.7316,-2.7351,-2.736,-2.7398,-2.7424,-2.7452,-2.7498,-2.7525,-2.7571,-2.7618,-2.764,-2.7641,-2.7702,-2.769,-2.769,-2.7693,-2.7719,-2.7722,-2.7724,-2.7691,-2.7691,-2.769,0,0,-2.7188,-2.7219,-2.7252,-2.7282,-2.7328,-2.7355,-2.7363,-2.7414,-2.7433,-2.7479,-2.75,-2.7534,-2.7601,-2.7632,-2.7657,-2.7688,-2.7702,-2.77,-2.7703,-2.7728,-2.773,-2.7732,-2.7743,-2.7746,-2.7703,-2.7703,-2.7703,0,-2.7183,-2.7236,-2.7267,-2.7303,-2.7329,-2.7354,-2.7388,-2.7417,-2.7473,-2.7491,-2.7491,-2.7576,-2.7608,-2.7662,-2.767,-2.7689,-2.77,-2.7693,-2.7727,-2.773,-2.7732,-2.7742,-2.7746,-2.7702,-2.7702,-2.7702,-2.7702,0,-2.7227,-2.7264,-2.7285,-2.7338,-2.7366,-2.7401,-2.7438,-2.7463,-2.7481,-2.7508,-2.7555,-2.7595,-2.7643,-2.7657,-2.7675,-2.7714,-2.7713,-2.772,-2.772,-2.7734,-2.7744,-2.7748,-2.7701,-2.7702,-2.7702,-2.7702,0,0,-2.7233,-2.7302,-2.7309,-2.7333,-2.7386,-2.7416,-2.7452,-2.7497,-2.7518,-2.7557,-2.7588,-2.7644,-2.7651,-2.7679,-2.7701,-2.7723,-2.7744,-2.7727,-2.7729,-2.7728,-2.7788,-2.7782,-2.7786,-2.7754,-2.7755,-2.7756,-2.7784,0,-2.7258,-2.7322,-2.7351,-2.7402,-2.7436,-2.7462,-2.7493,-2.753,-2.7556,-2.759,-2.7619,-2.7658,-2.7664,-2.7681,-2.7704,-2.7736,-2.7756,-2.7735,-2.7784,-2.7785,-2.777,-2.7792,-2.7785,-2.781,-2.7789,-2.7789,-2.779,0,-2.7295,-2.7332,-2.7386,-2.7435,-2.745,-2.7478,-2.7522,-2.7554,-2.7596,-2.7613,-2.7645,-2.7666,-2.7705,-2.7703,-2.7759,-2.7743,-2.7765,-2.7784,-2.7786,-2.7791,-2.7787,-2.7796,-2.7819,-2.7822,-2.7797,-2.7796,-2.7796,0,-2.7292,-2.7356,-2.7397,-2.7417,-2.7475,-2.7493,-2.7519,-2.756,-2.7585,-2.7624,-2.7641,-2.7684,-2.7708,-2.7742,-2.7774,-2.777,-2.7826,-2.7827,-2.7842,-2.7841,-2.7852,-2.7851,-2.7877,-2.7868,-2.7868,-2.7867,-2.7867,0,-2.7316,-2.7348,-2.7396,-2.7421,-2.7458,-2.7492,-2.7528,-2.7555,-2.7592,-2.7623,-2.7648,-2.7677,-2.7719,-2.7753,-2.7779,-2.7821,-2.7832,-2.7848,-2.7854,-2.7845,-2.7842,-2.7859,-2.7858,-2.7869,-2.7868,-2.7868,-2.7868,0,-2.7319,-2.7352,-2.7398,-2.7449,-2.7462,-2.7487,-2.7531,-2.7557,-2.7584,-2.7624,-2.7635,-2.7679,-2.7721,-2.7756,-2.7812,-2.783,-2.7873,-2.7881,-2.7858,-2.7861,-2.7874,-2.7872,-2.7911,-2.7918,-2.7904,-2.7904,-2.7904,0,-2.7331,-2.7356,-2.7409,-2.7431,-2.7456,-2.7491,-2.7517,-2.7552,-2.7577,-2.7627,-2.7647,-2.769,-2.7727,-2.7793,-2.783,-2.7873,-2.7882,-2.7893,-2.7889,-2.7879,-2.7882,-2.7879,-2.7882,-2.7893,-2.7893,-2.7893,-2.7893,0,-2.7349,-2.7365,-2.74,-2.7441,-2.7471,-2.7505,-2.7541,-2.7558,-2.7599,-2.7627,-2.767,-2.7698,-2.7754,-2.7797,-2.7844,-2.7872,-2.7889,-2.7894,-2.79,-2.789,-2.7875,-2.7883,-2.7857,-2.7893,-2.7893,-2.7893,-2.7893,-2.7893,-2.7357,-2.738,-2.7421,-2.7459,-2.7489,-2.7522,-2.7548,-2.7578,-2.7614,-2.7662,-2.7681,-2.7724,-2.7766,-2.7831,-2.7858,-2.7893,-2.7896,-2.7904,-2.7906,-2.7907,-2.7906,-2.787,-2.7902,-2.7902,-2.7902,-2.7902,-2.7902,0,-2.7376,-2.7403,-2.7438,-2.7486,-2.7516,-2.753,-2.757,-2.7594,-2.7632,-2.7669,-2.7704,-2.7753,-2.7795,-2.7836,-2.788,-2.7901,-2.791,-2.7911,-2.7909,-2.7915,-2.7901,-2.7891,-2.7903,-2.7903,-2.7903,-2.7903,-2.7903,-2.7903,-2.7389,-2.7428,-2.7449,-2.7504,-2.7531,-2.7573,-2.7594,-2.7625,-2.7654,-2.7707,-2.7742,-2.7768,-2.7807,-2.7854,-2.7893,-2.7905,-2.7919,-2.7918,-2.7931,-2.7917,-2.7916,-2.7916,-2.7907,-2.7921,-2.7921,-2.7943,-2.7943,-2.7943]},{"header":{"parameterUnit":"m.s-1","parameterCategory":1,"la1":30.2991,"la2":30.254,"lo1":-89.0895,"lo2":-89.0444,"dy":0.0017,"dx":0.0017,"nx":28,"ny":28,"refTime":"2025-01-30T03:00:00:Z","depth":0,"parameterNumber":3,"parameterNumberName":"V-component_of_WINDS"},"data":[0,0,0,0,0,0,0,0,0,0,0,0,0,0,0,0,0,0,0,0,0,0,0,0,0,0,0,0,0,0,0,0,0,0,0,0,0,0,0,0,0,0,0,0,0,0,0,0,0,0,0,0,0,0,0,0,0,0,4.9394,4.9395,0,4.9472,4.9473,4.9474,4.9464,4.9462,4.9461,4.946,4.9541,4.9544,4.9547,0,0,0,0,0,0,0,0,0,0,0,0,0,4.9241,4.9243,4.9394,4.9395,4.9396,4.9472,4.9473,4.9474,4.9464,4.9462,4.9461,4.9459,4.954,4.9544,4.9548,0,0,0,0,0,0,0,0,0,0,0,0,0,4.9312,4.9244,4.9394,4.94,4.9402,4.9471,4.9473,4.9474,4.9464,4.9462,4.946,4.9459,4.9538,4.9543,4.9548,4.9617,0,0,4.9563,4.9566,0,0,0,0,0,0,0,0,4.9308,4.9317,4.9398,4.94,4.9402,4.9456,4.9448,4.9522,4.9465,4.9441,4.946,4.9458,4.9514,4.9521,4.954,4.9621,4.9624,4.9564,4.9567,4.9569,4.957,0,0,0,0,0,0,0,4.9303,4.9314,4.9425,4.94,4.9402,4.94,4.9408,4.9462,4.9487,4.9443,4.9442,4.9451,4.9515,4.9535,4.9542,4.9625,4.9564,4.9568,4.9571,4.9573,4.977,4.9773,0,0,0,0,0,0,4.9296,4.931,4.9422,4.9427,4.9349,4.9405,4.9413,4.9441,4.9487,4.9492,4.9453,4.945,4.9527,4.9536,4.9544,4.9631,4.9569,4.9574,4.9577,4.9768,4.9771,4.9773,0,0,0,0,0,0,4.9293,4.9306,4.9419,4.9368,4.9383,4.9409,4.944,4.9443,4.9463,4.9494,4.9499,4.9469,4.9526,4.9537,4.96,4.9634,4.9576,4.9581,4.9766,4.9769,4.9772,4.9803,0,0,0,0,0,0,4.9288,4.9305,4.9331,4.9369,4.9386,4.9473,4.9442,4.9446,4.9472,4.947,4.9511,4.9515,4.9526,4.9592,4.9605,4.9639,4.9584,4.9763,4.9767,4.9771,4.9799,4.9807,4.9814,0,0,0,0,0,4.9283,4.9336,4.9332,4.9346,4.9418,4.9474,4.9484,4.9494,4.9474,4.9502,4.9522,4.9514,4.9627,4.9599,4.9613,4.9649,4.9761,4.9766,4.9771,4.9796,4.9805,4.9813,0,0,0,0,0,0,4.93,4.9341,4.9337,4.9404,4.9436,4.9473,4.9507,4.9504,4.9542,4.9539,4.955,4.9559,4.9623,4.9642,4.9609,4.972,4.9692,4.97,4.9706,4.9715,4.9722,4.9718,4.9589,0,0,0,0,0,4.9312,4.9354,4.9387,4.9443,4.9459,4.948,4.9505,4.951,4.9544,4.9558,4.9582,4.9616,4.966,4.9688,4.9729,4.9801,4.9811,4.9833,4.984,4.9846,4.9854,4.9897,4.9908,4.979,4.979,4.979,0,0,4.9337,4.9364,4.9389,4.9447,4.9472,4.9517,4.9492,4.9539,4.9573,4.9565,4.9626,4.9645,4.9684,4.9752,4.9783,4.977,4.9889,4.9853,4.9857,4.9862,4.9903,4.9914,4.9924,4.9793,4.9793,4.9792,0,0,4.9405,4.9428,4.9479,4.9505,4.9544,4.9558,4.957,4.9608,4.9621,4.9682,4.9678,4.9719,4.9792,4.9821,4.9845,4.9926,4.9922,4.9939,4.9978,5.002,5.0029,5.0037,5.007,5.008,4.9946,4.9946,4.9946,0,4.9431,4.9497,4.9505,4.9554,4.9581,4.9576,4.9629,4.9654,4.9704,4.9723,4.9707,4.9802,4.9827,4.9903,4.9923,4.9942,4.9958,4.9936,5.0027,5.0035,5.0043,5.0074,5.0086,4.9948,4.9948,4.9948,4.9948,0,4.9529,4.9575,4.9611,4.9661,4.9691,4.9741,4.9759,4.9789,4.9792,4.9808,4.9872,4.9902,4.9951,4.9969,4.9971,5.0047,5.0038,5.0024,4.9996,5.0056,5.0086,5.0097,4.9951,4.995,4.995,4.9949,0,0,4.9611,4.9665,4.9679,4.9703,4.9746,4.9783,4.9833,4.9881,4.9908,4.9943,4.9988,5.0051,5.004,5.0067,5.0073,5.0109,5.0175,5.0091,5.0092,5.0109,5.0264,5.0276,5.029,5.0172,5.0174,5.0176,5.0262,0,4.9686,4.9776,4.9786,4.9867,4.9911,4.9908,4.9952,4.9985,5.0001,5.0042,5.006,5.0106,5.0086,5.0103,5.0138,5.016,5.0207,5.0153,5.0216,5.0218,5.021,5.0304,5.0317,5.0397,5.0273,5.0275,5.0276,0,4.9786,4.9825,4.991,4.995,4.9969,5.0009,5.0055,5.0093,5.013,5.014,5.0172,5.0173,5.0228,5.0196,5.0273,5.0236,5.0262,5.0277,5.028,5.0289,5.0253,5.0319,5.0422,5.0435,5.0294,5.0292,5.0291,0,4.9842,4.9915,4.9977,4.9997,5.0043,5.0072,5.0093,5.0128,5.0157,5.0197,5.0217,5.0262,5.0288,5.0324,5.0339,5.0314,5.0417,5.0385,5.0428,5.0428,5.0452,5.0451,5.0565,5.0464,5.0464,5.0463,5.0463,0,4.9926,4.998,5.0003,5.0041,5.0102,5.0113,5.0172,5.0192,5.0224,5.0267,5.0265,5.0306,5.0322,5.0365,5.0377,5.0441,5.0452,5.0463,5.0466,5.0465,5.0464,5.0484,5.0481,5.0467,5.0466,5.0465,5.0465,0,5.0,5.0017,5.0085,5.0124,5.0135,5.0178,5.0212,5.025,5.0266,5.0321,5.0334,5.036,5.0411,5.0429,5.0491,5.0499,5.0575,5.0571,5.0563,5.0564,5.0608,5.0605,5.0741,5.0761,5.0644,5.0645,5.0646,0,5.0055,5.0096,5.014,5.0168,5.0191,5.0236,5.0266,5.0279,5.031,5.0357,5.039,5.0441,5.0483,5.0566,5.0591,5.0639,5.0639,5.0683,5.0647,5.0645,5.0644,5.0643,5.0649,5.0691,5.0693,5.0694,5.0694,0,5.0151,5.0158,5.0201,5.0247,5.0283,5.032,5.0356,5.038,5.0398,5.0434,5.0487,5.0519,5.0584,5.0636,5.0685,5.0708,5.0706,5.0705,5.0719,5.072,5.0715,5.0722,5.0585,5.0703,5.0702,5.0701,5.0701,5.0701,5.022,5.0257,5.0294,5.0343,5.0371,5.0405,5.0444,5.0465,5.0509,5.0563,5.0567,5.0625,5.0663,5.073,5.0755,5.0801,5.0789,5.0807,5.0813,5.0818,5.0823,5.0704,5.081,5.081,5.0809,5.0809,5.0809,0,5.0319,5.0343,5.0387,5.0438,5.0477,5.0469,5.0509,5.0543,5.0594,5.0629,5.0671,5.0733,5.0784,5.0813,5.0864,5.0896,5.0896,5.0909,5.0909,5.0915,5.0829,5.0814,5.0908,5.0908,5.0908,5.0908,5.0908,5.0908,5.0375,5.044,5.0451,5.053,5.0554,5.0611,5.0635,5.0667,5.0696,5.0765,5.0807,5.0826,5.0859,5.0913,5.096,5.0968,5.0988,5.1003,5.101,5.093,5.092,5.0911,5.0897,5.1006,5.1007,5.1092,5.1093,5.1093]}]]